{"data":{"norad_id":66200,"epoch":"2026-05-24T15:22:40.183104Z","epoch_age_seconds":106849,"freshness":"FRESH","line1":"1 66200U 25243Z   26144.64074286  .00025214  00000+0  85976-3 0  9995","line2":"2 66200  53.1589 252.3624 0000841 102.7974 257.3121 15.30228920 32282","mean_motion":15.3022892,"eccentricity":8.41e-5,"inclination_deg":53.1589,"raan_deg":252.3624,"arg_perigee_deg":102.7974,"mean_anomaly_deg":257.3121,"bstar":0.00085976,"rev_number":3228,"period_min":94.103567196992,"perigee_km":474.55236122501,"apogee_km":475.70508051926,"semimajor_km":6853.2657208721,"source":"CELESTRAK","updated_at":"2026-05-25T13:38:21.124823Z"}}